Time,TemperatureF,DewpointF,PressureIn,WindDirection,WindDirectionDegrees,WindSpeedMPH,WindSpeedGustMPH,Humidity,HourlyPrecipIn,Conditions,Clouds,dailyrainin,SolarRadiationWatts/m^2,SoftwareType,DateUTC
2013-04-11 00:01:00,54.0,50.8,30.00,ESE,121,6.9,6.9,89,0.00,,SKC,0.00,0.0,WeatherDisplay:10.37,2013-04-11 07:01:00,
2013-04-11 00:06:00,53.9,50.7,30.00,ESE,113,4.6,4.6,89,0.00,,SKC,0.00,0.0,WeatherDisplay:10.37,2013-04-11 07:06:00,
2013-04-11 00:11:00,54.0,50.8,30.00,ESE,115,3.5,3.5,89,0.00,,SKC,0.00,0.0,WeatherDisplay:10.37,2013-04-11 07:11:00,
2013-04-11 00:16:00,54.1,50.9,30.00,ESE,114,2.3,2.3,89,0.00,,SKC,0.00,0.0,WeatherDisplay:10.37,2013-04-11 07:16:00,
2013-04-11 00:21:00,54.0,50.8,30.00,ESE,113,1.2,1.2,89,0.00,,SKC,0.00,0.0,WeatherDisplay:10.37,2013-04-11 07:21:00,
2013-04-11 00:26:00,53.9,50.7,30.01,ESE,114,0.0,0.0,89,0.00,,SKC,0.00,0.0,WeatherDisplay:10.37,2013-04-11 07:26:00,
2013-04-11 00:31:00,53.8,50.6,30.01,ESE,116,2.0,2.0,89,0.00,,SKC,0.00,0.0,WeatherDisplay:10.37,2013-04-11 07:31:00,
2013-04-11 00:36:00,53.8,50.6,30.01,ESE,122,5.8,5.8,89,0.00,,SKC,0.00,0.0,WeatherDisplay:10.37,2013-04-11 07:36:00,
2013-04-11 00:41:00,53.8,50.6,30.01,SE,135,9.2,9.2,89,0.00,,SKC,0.00,0.0,WeatherDisplay:10.37,2013-04-11 07:41:00,
2013-04-11 00:47:00,53.9,50.7,30.01,ESE,111,5.8,5.8,89,0.00,,SKC,0.00,0.0,WeatherDisplay:10.37,2013-04-11 07:47:00,
2013-04-11 00:52:00,53.8,50.3,30.01,ESE,107,1.2,1.2,88,0.00,,SKC,0.00,0.0,WeatherDisplay:10.37,2013-04-11 07:52:00,
2013-04-11 00:57:00,53.7,50.2,30.01,ESE,112,4.6,4.6,88,0.00,,SKC,0.00,0.0,WeatherDisplay:10.37,2013-04-11 07:57:00,
2013-04-11 01:02:00,53.7,50.2,30.01,ESE,105,4.0,4.0,88,0.00,,SKC,0.00,0.0,WeatherDisplay:10.37,2013-04-11 08:02:00,
2013-04-11 01:07:00,53.6,50.1,30.01,ESE,117,5.0,5.0,88,0.00,,SKC,0.00,0.0,WeatherDisplay:10.37,2013-04-11 08:07:00,
2013-04-11 01:12:00,53.6,50.1,30.01,East,101,5.8,5.8,88,0.00,,SKC,0.00,0.0,WeatherDisplay:10.37,2013-04-11 08:12:00,
2013-04-11 01:17:00,53.5,50.0,30.01,SE,129,5.0,5.0,88,0.00,,SKC,0.00,0.0,WeatherDisplay:10.37,2013-04-11 08:17:00,
2013-04-11 01:22:00,53.4,49.9,30.01,ESE,109,5.8,5.8,88,0.00,,SKC,0.00,0.0,WeatherDisplay:10.37,2013-04-11 08:22:00,
2013-04-11 01:27:00,53.3,49.8,30.00,East,92,5.0,5.0,88,0.00,,SKC,0.00,0.0,WeatherDisplay:10.37,2013-04-11 08:27:00,
2013-04-11 01:32:00,53.2,50.0,30.00,ESE,103,4.6,4.6,89,0.00,,SKC,0.00,0.0,WeatherDisplay:10.37,2013-04-11 08:32:00,
2013-04-11 01:37:00,53.1,49.6,30.00,ESE,103,0.0,0.0,88,0.00,,SKC,0.00,0.0,WeatherDisplay:10.37,2013-04-11 08:37:00,
2013-04-11 01:42:00,53.0,49.8,30.00,East,101,1.2,1.2,89,0.00,,SKC,0.00,0.0,WeatherDisplay:10.37,2013-04-11 08:42:00,
2013-04-11 01:47:00,52.9,49.4,30.00,East,101,1.2,1.2,88,0.00,,SKC,0.00,0.0,WeatherDisplay:10.37,2013-04-11 08:47:00,
2013-04-11 01:52:00,52.8,49.3,30.00,ESE,102,4.6,4.6,88,0.00,,SKC,0.00,0.0,WeatherDisplay:10.37,2013-04-11 08:52:00,
2013-04-11 01:57:00,52.8,49.3,30.00,ESE,122,6.9,6.9,88,0.00,,SKC,0.00,0.0,WeatherDisplay:10.37,2013-04-11 08:57:00,
2013-04-11 02:02:00,52.8,49.6,30.00,ESE,123,4.0,4.0,89,0.00,,SKC,0.00,0.0,WeatherDisplay:10.37,2013-04-11 09:02:00,
2013-04-11 02:07:00,52.8,49.6,30.00,SE,131,4.6,4.6,89,0.00,,SKC,0.00,0.0,WeatherDisplay:10.37,2013-04-11 09:07:00,
2013-04-11 02:12:00,52.7,49.5,29.99,ESE,115,4.6,4.6,89,0.00,,SKC,0.00,0.0,WeatherDisplay:10.37,2013-04-11 09:12:00,
2013-04-11 02:17:00,52.6,49.4,29.99,ESE,121,4.6,4.6,89,0.00,,SKC,0.00,0.0,WeatherDisplay:10.37,2013-04-11 09:17:00,
2013-04-11 02:22:00,52.5,49.4,29.99,ESE,122,3.5,3.5,89,0.00,,SKC,0.00,0.0,WeatherDisplay:10.37,2013-04-11 09:22:00,
2013-04-11 02:27:00,52.4,49.3,29.99,SE,134,4.6,4.6,89,0.00,,SKC,0.00,0.0,WeatherDisplay:10.37,2013-04-11 09:27:00,
2013-04-11 02:32:00,52.3,49.2,29.99,SE,134,0.0,0.0,89,0.00,,SKC,0.00,0.0,WeatherDisplay:10.37,2013-04-11 09:32:00,
2013-04-11 02:37:00,52.3,49.2,29.99,SE,134,2.3,2.3,89,0.00,,SKC,0.00,0.0,WeatherDisplay:10.37,2013-04-11 09:37:00,
2013-04-11 02:42:00,52.2,49.1,29.99,SE,134,3.5,3.5,89,0.00,,SKC,0.00,0.0,WeatherDisplay:10.37,2013-04-11 09:42:00,
2013-04-11 02:47:00,52.1,49.3,29.99,South,175,4.6,4.6,90,0.00,,SKC,0.00,0.0,WeatherDisplay:10.37,2013-04-11 09:47:00,
2013-04-11 02:52:00,52.0,48.9,29.99,South,175,1.2,1.2,89,0.00,,SKC,0.00,0.0,WeatherDisplay:10.37,2013-04-11 09:52:00,
2013-04-11 02:57:00,51.9,49.1,29.99,South,175,2.3,0.0,90,0.00,,SKC,0.00,0.0,WeatherDisplay:10.37,2013-04-11 09:57:00,
2013-04-11 03:02:00,51.9,49.1,29.99,South,174,1.2,0.0,90,0.00,,SKC,0.00,0.0,WeatherDisplay:10.37,2013-04-11 10:02:00,
2013-04-11 03:07:00,51.7,48.9,29.99,South,179,3.5,3.5,90,0.00,,SKC,0.00,0.0,WeatherDisplay:10.37,2013-04-11 10:07:00,
2013-04-11 03:13:00,51.6,48.8,29.98,South,179,2.3,2.3,90,0.00,,SKC,0.00,0.0,WeatherDisplay:10.37,2013-04-11 10:13:00,
2013-04-11 03:18:00,51.6,48.8,29.98,South,178,2.3,2.3,90,0.00,,SKC,0.00,0.0,WeatherDisplay:10.37,2013-04-11 10:18:00,
2013-04-11 03:23:00,51.6,48.8,29.98,SSE,163,3.5,3.5,90,0.00,,SKC,0.00,0.0,WeatherDisplay:10.37,2013-04-11 10:23:00,
2013-04-11 03:28:00,51.5,48.7,29.98,SSE,163,1.2,0.0,90,0.00,,SKC,0.00,0.0,WeatherDisplay:10.37,2013-04-11 10:28:00,
2013-04-11 03:33:00,51.5,48.7,29.98,SSE,163,2.3,2.3,90,0.00,,SKC,0.00,0.0,WeatherDisplay:10.37,2013-04-11 10:33:00,
2013-04-11 03:38:00,51.4,48.6,29.98,SSE,163,0.0,0.0,90,0.00,,SKC,0.00,0.0,WeatherDisplay:10.37,2013-04-11 10:38:00,
2013-04-11 03:43:00,51.4,48.6,29.98,SSE,162,1.2,1.2,90,0.00,,SKC,0.00,0.0,WeatherDisplay:10.37,2013-04-11 10:43:00,
2013-04-11 03:48:00,51.3,48.8,29.98,SSE,162,0.0,0.0,91,0.00,,SKC,0.00,0.0,WeatherDisplay:10.37,2013-04-11 10:48:00,
2013-04-11 03:53:00,51.3,48.8,29.98,SSE,161,4.0,4.0,91,0.00,,SKC,0.00,0.0,WeatherDisplay:10.37,2013-04-11 10:53:00,
2013-04-11 03:58:00,51.3,48.8,29.97,SSE,155,2.3,2.3,91,0.00,,SKC,0.00,0.0,WeatherDisplay:10.37,2013-04-11 10:58:00,
2013-04-11 04:03:00,51.3,48.8,29.97,SSE,155,0.0,0.0,91,0.00,,SKC,0.00,0.0,WeatherDisplay:10.37,2013-04-11 11:03:00,
2013-04-11 04:08:00,51.2,48.7,29.97,SE,146,2.3,2.3,91,0.00,,SKC,0.00,0.0,WeatherDisplay:10.37,2013-04-11 11:08:00,
2013-04-11 04:13:00,51.2,48.7,29.98,ENE,61,2.0,2.0,91,0.00,,SKC,0.00,0.0,WeatherDisplay:10.37,2013-04-11 11:13:00,
2013-04-11 04:18:00,51.1,48.6,29.98,ENE,61,1.0,1.0,91,0.00,,SKC,0.00,0.0,WeatherDisplay:10.37,2013-04-11 11:18:00,
2013-04-11 04:23:00,51.0,48.5,29.98,ENE,61,1.2,1.2,91,0.00,,SKC,0.00,0.0,WeatherDisplay:10.37,2013-04-11 11:23:00,
2013-04-11 04:28:00,50.8,48.3,29.97,ENE,61,1.2,1.2,91,0.00,,SKC,0.00,0.0,WeatherDisplay:10.37,2013-04-11 11:28:00,
2013-04-11 04:33:00,50.8,48.3,29.97,ENE,61,3.5,3.5,91,0.00,,SKC,0.00,0.0,WeatherDisplay:10.37,2013-04-11 11:33:00,
2013-04-11 04:38:00,50.8,48.3,29.97,ENE,61,3.5,3.5,91,0.00,,SKC,0.00,0.0,WeatherDisplay:10.37,2013-04-11 11:38:00,
2013-04-11 04:43:00,50.8,48.3,29.96,East,96,4.6,4.6,91,0.00,,SKC,0.00,0.0,WeatherDisplay:10.37,2013-04-11 11:43:00,
2013-04-11 04:48:00,50.8,48.3,29.96,ESE,109,1.2,1.3,91,0.00,,SKC,0.00,0.0,WeatherDisplay:10.37,2013-04-11 11:48:00,
2013-04-11 04:53:00,50.8,48.3,29.96,ESE,113,2.3,2.3,91,0.00,,SKC,0.00,0.0,WeatherDisplay:10.37,2013-04-11 11:53:00,
2013-04-11 04:58:00,50.8,48.3,29.96,ESE,112,3.5,3.5,91,0.00,,SKC,0.00,0.0,WeatherDisplay:10.37,2013-04-11 11:58:00,
2013-04-11 05:03:00,50.7,48.2,29.96,East,96,3.5,3.5,91,0.00,,SKC,0.00,0.0,WeatherDisplay:10.37,2013-04-11 12:03:00,
2013-04-11 05:08:00,50.7,48.2,29.96,ESE,115,2.3,2.3,91,0.00,,SKC,0.00,0.0,WeatherDisplay:10.37,2013-04-11 12:08:00,
2013-04-11 05:13:00,50.6,48.1,29.96,SE,128,4.6,4.6,91,0.00,,SKC,0.00,0.0,WeatherDisplay:10.37,2013-04-11 12:13:00,
2013-04-11 05:18:00,50.6,48.1,29.96,SE,127,3.5,3.5,91,0.00,,SKC,0.00,0.0,WeatherDisplay:10.37,2013-04-11 12:18:00,
2013-04-11 05:23:00,50.5,48.0,29.96,SE,129,1.2,1.2,91,0.00,,SKC,0.00,0.0,WeatherDisplay:10.37,2013-04-11 12:23:00,
2013-04-11 05:28:00,50.4,47.9,29.96,SE,129,2.3,2.3,91,0.00,,SKC,0.00,0.0,WeatherDisplay:10.37,2013-04-11 12:28:00,
2013-04-11 05:33:00,50.3,47.8,29.96,SE,129,0.0,0.0,91,0.00,,SKC,0.00,0.0,WeatherDisplay:10.37,2013-04-11 12:33:00,
2013-04-11 05:38:00,50.3,48.1,29.96,SE,129,2.3,2.3,92,0.00,,SKC,0.00,0.0,WeatherDisplay:10.37,2013-04-11 12:38:00,
2013-04-11 05:43:00,50.2,47.7,29.95,ENE,78,3.5,3.5,91,0.00,,SKC,0.00,0.0,WeatherDisplay:10.37,2013-04-11 12:43:00,
2013-04-11 05:48:00,50.1,47.6,29.95,East,86,3.5,3.5,91,0.00,,SKC,0.00,0.0,WeatherDisplay:10.37,2013-04-11 12:48:00,
2013-04-11 05:53:00,50.1,47.6,29.95,ENE,75,4.6,4.6,91,0.00,,SKC,0.00,0.0,WeatherDisplay:10.37,2013-04-11 12:53:00,
2013-04-11 05:58:00,49.9,47.7,29.95,NE,40,3.5,3.5,92,0.00,,SKC,0.00,0.0,WeatherDisplay:10.37,2013-04-11 12:58:00,
2013-04-11 06:03:00,49.8,47.6,29.95,ENE,70,1.2,1.2,92,0.00,,SKC,0.00,0.0,WeatherDisplay:10.37,2013-04-11 13:03:00,
2013-04-11 06:08:00,49.7,47.5,29.95,ENE,59,2.3,2.3,92,0.00,OVC,SKC,0.00,0.0,WeatherDisplay:10.37,2013-04-11 13:08:00,
2013-04-11 06:13:00,49.6,47.4,29.95,ENE,59,0.0,0.0,92,0.00,OVC,SKC,0.00,0.0,WeatherDisplay:10.37,2013-04-11 13:13:00,
2013-04-11 06:18:00,49.5,47.3,29.95,ENE,59,0.0,0.3,92,0.00,OVC,SKC,0.00,0.0,WeatherDisplay:10.37,2013-04-11 13:18:00,
2013-04-11 06:23:00,49.3,47.1,29.95,ENE,59,0.0,0.0,92,0.00,OVC,SKC,0.00,0.0,WeatherDisplay:10.37,2013-04-11 13:23:00,
2013-04-11 06:28:00,49.2,47.0,29.95,ENE,59,0.0,0.0,92,0.00,OVC,SKC,0.00,0.0,WeatherDisplay:10.37,2013-04-11 13:28:00,
2013-04-11 06:33:00,49.1,46.9,29.95,ENE,59,0.0,0.0,92,0.00,OVC,SKC,0.00,0.0,WeatherDisplay:10.37,2013-04-11 13:33:00,
2013-04-11 06:38:00,49.3,47.1,29.95,ENE,59,0.0,0.0,92,0.00,OVC,SKC,0.00,5.0,WeatherDisplay:10.37,2013-04-11 13:38:00,
2013-04-11 06:43:00,49.5,47.3,29.96,ENE,59,0.0,0.0,92,0.00,OVC,SKC,0.00,7.0,WeatherDisplay:10.37,2013-04-11 13:43:00,
2013-04-11 06:48:00,49.4,47.2,29.96,ENE,59,0.0,0.0,92,0.00,OVC,SKC,0.00,11.0,WeatherDisplay:10.37,2013-04-11 13:48:00,
2013-04-11 06:53:00,49.4,47.2,29.96,ENE,59,1.2,1.2,92,0.00,OVC,SKC,0.00,14.0,WeatherDisplay:10.37,2013-04-11 13:53:00,
2013-04-11 06:58:00,49.0,46.8,29.96,ENE,59,2.3,2.3,92,0.00,OVC,SKC,0.00,18.0,WeatherDisplay:10.37,2013-04-11 13:58:00,
2013-04-11 07:03:00,48.8,46.6,29.96,ENE,59,0.0,0.0,92,0.00,OVC,SKC,0.00,21.0,WeatherDisplay:10.37,2013-04-11 14:03:00,
2013-04-11 07:08:00,48.9,46.7,29.95,ENE,59,0.0,0.0,92,0.00,OVC,SKC,0.00,25.0,WeatherDisplay:10.37,2013-04-11 14:08:00,
2013-04-11 07:13:00,49.0,46.8,29.95,ENE,59,0.0,0.0,92,0.00,OVC,SKC,0.00,28.0,WeatherDisplay:10.37,2013-04-11 14:13:00,
2013-04-11 07:18:00,48.9,46.7,29.95,ENE,59,0.0,0.0,92,0.00,OVC,SKC,0.00,32.0,WeatherDisplay:10.37,2013-04-11 14:18:00,
2013-04-11 07:23:00,49.0,46.8,29.96,ENE,59,0.0,0.0,92,0.00,OVC,SKC,0.00,67.0,WeatherDisplay:10.37,2013-04-11 14:23:00,
2013-04-11 07:28:00,49.2,47.0,29.96,ENE,59,1.2,1.2,92,0.00,OVC,SKC,0.00,40.0,WeatherDisplay:10.37,2013-04-11 14:28:00,
2013-04-11 07:33:00,49.4,47.2,29.96,ENE,59,0.0,0.0,92,0.00,OVC,SKC,0.00,76.0,WeatherDisplay:10.37,2013-04-11 14:33:00,
2013-04-11 07:38:00,49.6,47.4,29.96,ENE,59,1.2,0.0,92,0.00,OVC,SKC,0.00,88.0,WeatherDisplay:10.37,2013-04-11 14:38:00,
2013-04-11 07:43:00,49.6,47.4,29.96,ENE,59,0.0,0.0,92,0.00,OVC,SKC,0.00,137.0,WeatherDisplay:10.37,2013-04-11 14:43:00,
2013-04-11 07:48:00,49.5,47.3,29.96,NE,48,3.5,3.5,92,0.00,OVC,SKC,0.00,153.0,WeatherDisplay:10.37,2013-04-11 14:48:00,
2013-04-11 07:53:00,49.6,47.1,29.96,NE,48,3.0,3.0,91,0.00,OVC,SKC,0.00,169.0,WeatherDisplay:10.37,2013-04-11 14:53:00,
2013-04-11 07:58:00,50.1,47.3,29.96,NNW,337,3.5,3.5,90,0.00,OVC,SKC,0.00,185.0,WeatherDisplay:10.37,2013-04-11 14:58:00,
2013-04-11 08:03:00,50.7,47.6,29.96,NNW,337,4.0,4.0,89,0.00,OVC,SKC,0.00,199.0,WeatherDisplay:10.37,2013-04-11 15:03:00,
2013-04-11 08:08:00,51.3,47.9,29.96,NNW,337,2.0,2.0,88,0.00,OVC,SKC,0.00,214.0,WeatherDisplay:10.37,2013-04-11 15:08:00,
2013-04-11 08:13:00,51.9,47.8,29.96,NNW,337,0.0,0.0,86,0.00,OVC,SKC,0.00,236.0,WeatherDisplay:10.37,2013-04-11 15:13:00,
2013-04-11 08:18:00,52.9,49.1,29.96,ESE,104,2.3,2.3,87,0.00,OVC,SKC,0.00,255.0,WeatherDisplay:10.37,2013-04-11 15:18:00,
2013-04-11 08:23:00,53.0,48.9,29.96,ESE,121,3.5,3.5,86,0.00,OVC,SKC,0.00,272.0,WeatherDisplay:10.37,2013-04-11 15:23:00,
2013-04-11 08:28:00,53.0,48.9,29.96,ESE,123,4.6,4.6,86,0.00,OVC,SKC,0.00,292.0,WeatherDisplay:10.37,2013-04-11 15:28:00,
2013-04-11 08:33:00,53.1,48.7,29.96,ESE,120,4.6,4.6,85,0.00,OVC,SKC,0.00,311.0,WeatherDisplay:10.37,2013-04-11 15:33:00,
2013-04-11 08:38:00,53.3,48.9,29.96,ESE,120,3.5,3.5,85,0.00,OVC,SKC,0.00,329.0,WeatherDisplay:10.37,2013-04-11 15:38:00,
2013-04-11 08:43:00,53.6,49.2,29.96,ESE,121,1.2,1.2,85,0.00,OVC,SKC,0.00,348.0,WeatherDisplay:10.37,2013-04-11 15:43:00,
2013-04-11 08:48:00,53.7,49.0,29.96,ESE,121,2.3,2.3,84,0.00,OVC,SKC,0.00,362.0,WeatherDisplay:10.37,2013-04-11 15:48:00,
2013-04-11 08:54:00,53.9,48.5,29.96,ESE,121,4.6,4.6,82,0.00,OVC,SKC,0.00,381.0,WeatherDisplay:10.37,2013-04-11 15:54:00,
2013-04-11 08:59:00,53.5,47.8,29.96,SE,130,5.8,5.8,81,0.00,OVC,SKC,0.00,397.0,WeatherDisplay:10.37,2013-04-11 15:59:00,
2013-04-11 09:04:00,53.6,48.6,29.96,SE,127,4.6,4.6,83,0.00,OVC,SKC,0.00,417.0,WeatherDisplay:10.37,2013-04-11 16:04:00,
2013-04-11 09:09:00,53.8,48.4,29.95,ESE,102,5.8,5.8,82,0.00,OVC,SKC,0.00,432.0,WeatherDisplay:10.37,2013-04-11 16:09:00,
2013-04-11 09:14:00,53.6,48.6,29.95,SE,128,5.8,5.8,83,0.00,OVC,SKC,0.00,448.0,WeatherDisplay:10.37,2013-04-11 16:14:00,
2013-04-11 09:19:00,53.6,48.2,29.95,SSE,150,5.8,5.8,82,0.00,OVC,SKC,0.00,468.0,WeatherDisplay:10.37,2013-04-11 16:19:00,
2013-04-11 09:24:00,54.1,48.7,29.95,SSE,157,6.0,6.0,82,0.00,OVC,SKC,0.00,487.0,WeatherDisplay:10.37,2013-04-11 16:24:00,
2013-04-11 09:29:00,54.2,48.5,29.95,SSE,154,6.0,6.0,81,0.00,OVC,SKC,0.00,504.0,WeatherDisplay:10.37,2013-04-11 16:29:00,
2013-04-11 09:34:00,53.9,47.9,29.95,South,177,8.0,8.0,80,0.00,OVC,SKC,0.00,520.0,WeatherDisplay:10.37,2013-04-11 16:34:00,
2013-04-11 09:39:00,54.1,48.4,29.95,SSE,167,5.8,5.8,81,0.00,OVC,SKC,0.00,536.0,WeatherDisplay:10.37,2013-04-11 16:39:00,
2013-04-11 09:44:00,54.0,47.6,29.95,SSE,166,6.9,6.9,79,0.00,OVC,SKC,0.00,513.0,WeatherDisplay:10.37,2013-04-11 16:44:00,
2013-04-11 09:49:00,53.9,47.9,29.95,SSE,157,6.0,6.0,80,0.00,OVC,SKC,0.00,527.0,WeatherDisplay:10.37,2013-04-11 16:49:00,
2013-04-11 09:54:00,54.3,48.3,29.95,SSE,157,4.6,4.6,80,0.00,OVC,SKC,0.00,524.0,WeatherDisplay:10.37,2013-04-11 16:54:00,
2013-04-11 09:59:00,54.4,48.4,29.95,SSE,158,5.8,5.8,80,0.00,OVC,SKC,0.00,601.0,WeatherDisplay:10.37,2013-04-11 16:59:00,
2013-04-11 10:04:00,54.5,48.5,29.95,SE,144,4.6,4.6,80,0.00,OVC,SKC,0.00,589.0,WeatherDisplay:10.37,2013-04-11 17:04:00,
2013-04-11 10:09:00,54.5,48.8,29.95,SSE,165,4.6,4.6,81,0.00,OVC,SKC,0.00,624.0,WeatherDisplay:10.37,2013-04-11 17:09:00,
2013-04-11 10:14:00,54.8,48.7,29.95,SSW,202,5.0,5.0,80,0.00,OVC,SKC,0.00,650.0,WeatherDisplay:10.37,2013-04-11 17:14:00,
2013-04-11 10:19:00,54.7,48.6,29.95,South,188,5.8,5.8,80,0.00,OVC,SKC,0.00,654.0,WeatherDisplay:10.37,2013-04-11 17:19:00,
2013-04-11 10:24:00,54.8,48.7,29.95,SSE,157,6.9,6.9,80,0.00,OVC,SKC,0.00,617.0,WeatherDisplay:10.37,2013-04-11 17:24:00,
2013-04-11 10:29:00,54.9,48.5,29.95,SSW,196,7.0,7.0,79,0.00,OVC,SKC,0.00,682.0,WeatherDisplay:10.37,2013-04-11 17:29:00,
2013-04-11 10:34:00,54.4,48.4,29.95,SW,219,8.1,8.1,80,0.00,OVC,SKC,0.00,698.0,WeatherDisplay:10.37,2013-04-11 17:34:00,
2013-04-11 10:39:00,54.5,48.5,29.96,SW,223,8.1,8.1,80,0.00,OVC,SKC,0.00,707.0,WeatherDisplay:10.37,2013-04-11 17:39:00,
2013-04-11 10:44:00,54.5,48.5,29.96,SSW,209,8.1,8.1,80,0.00,OVC,SKC,0.00,717.0,WeatherDisplay:10.37,2013-04-11 17:44:00,
2013-04-11 10:49:00,54.7,49.3,29.96,SW,227,4.6,4.6,82,0.00,OVC,SKC,0.00,728.0,WeatherDisplay:10.37,2013-04-11 17:49:00,
2013-04-11 10:54:00,55.1,49.0,29.95,SSW,209,6.9,6.9,80,0.00,OVC,SKC,0.00,737.0,WeatherDisplay:10.37,2013-04-11 17:54:00,
2013-04-11 10:59:00,54.9,48.8,29.95,SSW,208,8.1,8.1,80,0.00,OVC,SKC,0.00,747.0,WeatherDisplay:10.37,2013-04-11 17:59:00,
2013-04-11 11:04:00,55.1,49.4,29.95,SSW,211,5.8,5.8,81,0.00,OVC,SKC,0.00,759.0,WeatherDisplay:10.37,2013-04-11 18:04:00,
2013-04-11 11:09:00,55.5,49.4,29.95,SSW,213,8.1,8.1,80,0.00,OVC,SKC,0.00,768.0,WeatherDisplay:10.37,2013-04-11 18:09:00,
2013-04-11 11:14:00,55.8,49.4,29.95,SW,223,9.0,9.0,79,0.00,OVC,SKC,0.00,779.0,WeatherDisplay:10.37,2013-04-11 18:14:00,
2013-04-11 11:19:00,55.3,49.2,29.95,SSE,167,9.2,9.2,80,0.00,OVC,SKC,0.00,791.0,WeatherDisplay:10.37,2013-04-11 18:19:00,
2013-04-11 11:24:00,55.4,49.3,29.95,SSW,202,6.0,9.0,80,0.00,OVC,SKC,0.00,800.0,WeatherDisplay:10.37,2013-04-11 18:24:00,
2013-04-11 11:29:00,55.5,49.4,29.95,South,173,9.2,9.2,80,0.00,OVC,SKC,0.00,809.0,WeatherDisplay:10.37,2013-04-11 18:29:00,
2013-04-11 11:34:00,55.6,49.1,29.95,SSW,195,7.0,9.0,79,0.00,OVC,SKC,0.00,817.0,WeatherDisplay:10.37,2013-04-11 18:34:00,
2013-04-11 11:39:00,56.1,49.7,29.94,South,191,8.1,8.1,79,0.00,OVC,SKC,0.00,826.0,WeatherDisplay:10.37,2013-04-11 18:39:00,
2013-04-11 11:44:00,56.3,49.5,29.94,South,171,6.0,9.0,78,0.00,OVC,SKC,0.00,835.0,WeatherDisplay:10.37,2013-04-11 18:44:00,
2013-04-11 11:50:00,56.5,49.7,29.94,South,179,9.2,9.2,78,0.00,OVC,SKC,0.00,838.0,WeatherDisplay:10.37,2013-04-11 18:50:00,
2013-04-11 11:55:00,56.5,49.4,29.94,South,180,10.4,10.4,77,0.00,OVC,SKC,0.00,846.0,WeatherDisplay:10.37,2013-04-11 18:55:00,
2013-04-11 12:00:00,56.0,49.2,29.94,South,176,8.1,8.1,78,0.00,OVC,SKC,0.00,854.0,WeatherDisplay:10.37,2013-04-11 19:00:00,
2013-04-11 12:05:00,56.7,49.9,29.94,SSE,157,6.9,6.9,78,0.00,OVC,SKC,0.00,858.0,WeatherDisplay:10.37,2013-04-11 19:05:00,
2013-04-11 12:10:00,57.4,50.2,29.93,SE,145,5.0,7.0,77,0.00,OVC,SKC,0.00,867.0,WeatherDisplay:10.37,2013-04-11 19:10:00,
2013-04-11 12:15:00,58.2,50.7,29.93,ESE,117,5.0,5.0,76,0.00,OVC,SKC,0.00,872.0,WeatherDisplay:10.37,2013-04-11 19:15:00,
2013-04-11 12:20:00,57.7,50.2,29.93,SE,131,6.9,6.9,76,0.00,OVC,SKC,0.00,879.0,WeatherDisplay:10.37,2013-04-11 19:20:00,
2013-04-11 12:25:00,57.4,50.2,29.92,SE,126,9.2,9.2,77,0.00,OVC,SKC,0.00,884.0,WeatherDisplay:10.37,2013-04-11 19:25:00,
2013-04-11 12:30:00,57.0,49.5,29.92,ESE,108,9.2,9.2,76,0.00,OVC,SKC,0.00,889.0,WeatherDisplay:10.37,2013-04-11 19:30:00,
2013-04-11 12:35:00,57.1,49.6,29.92,East,98,7.0,7.0,76,0.00,OVC,SKC,0.00,902.0,WeatherDisplay:10.37,2013-04-11 19:35:00,
2013-04-11 12:40:00,56.1,49.3,29.90,ESE,103,8.1,8.1,78,0.00,OVC,SKC,0.00,911.0,WeatherDisplay:10.37,2013-04-11 19:40:00,
2013-04-11 12:45:00,56.1,49.7,29.90,ESE,107,8.1,8.1,79,0.00,OVC,SKC,0.00,926.0,WeatherDisplay:10.37,2013-04-11 19:45:00,
2013-04-11 12:50:00,56.6,50.5,29.90,East,94,8.0,8.0,80,0.00,OVC,SKC,0.00,919.0,WeatherDisplay:10.37,2013-04-11 19:50:00,
2013-04-11 12:55:00,57.0,49.9,29.90,ESE,106,9.2,9.2,77,0.00,OVC,SKC,0.00,759.0,WeatherDisplay:10.37,2013-04-11 19:55:00,
2013-04-11 13:00:00,56.7,49.9,29.90,ESE,115,8.1,8.1,78,0.00,OVC,SKC,0.00,740.0,WeatherDisplay:10.37,2013-04-11 20:00:00,
2013-04-11 13:05:00,56.2,49.1,29.90,East,96,8.1,8.1,77,0.00,OVC,SKC,0.00,763.0,WeatherDisplay:10.37,2013-04-11 20:05:00,
2013-04-11 13:10:00,56.3,49.9,29.88,East,98,8.1,8.1,79,0.00,OVC,SKC,0.00,962.0,WeatherDisplay:10.37,2013-04-11 20:10:00,
2013-04-11 13:15:00,56.6,50.2,29.88,SE,140,6.9,6.9,79,0.00,OVC,SKC,0.00,967.0,WeatherDisplay:10.37,2013-04-11 20:15:00,
2013-04-11 13:20:00,57.4,50.2,29.88,East,91,8.1,8.1,77,0.00,OVC,SKC,0.00,506.0,WeatherDisplay:10.37,2013-04-11 20:20:00,
2013-04-11 13:25:00,57.0,49.9,29.88,SSE,149,6.9,6.9,77,0.00,OVC,SKC,0.00,346.0,WeatherDisplay:10.37,2013-04-11 20:25:00,
2013-04-11 13:30:00,56.7,49.9,29.88,SE,140,9.2,9.2,78,0.00,OVC,SKC,0.00,357.0,WeatherDisplay:10.37,2013-04-11 20:30:00,
2013-04-11 13:35:00,56.9,50.5,29.88,ESE,111,7.0,7.0,79,0.00,OVC,SKC,0.00,473.0,WeatherDisplay:10.37,2013-04-11 20:35:00,
2013-04-11 13:40:00,56.8,50.7,29.87,ESE,102,8.1,8.1,80,0.00,OVC,SKC,0.00,664.0,WeatherDisplay:10.37,2013-04-11 20:40:00,
2013-04-11 13:45:00,56.9,50.5,29.87,ESE,123,6.9,6.9,79,0.00,OVC,SKC,0.00,592.0,WeatherDisplay:10.37,2013-04-11 20:45:00,
2013-04-11 13:50:00,57.3,50.5,29.87,ESE,111,4.6,4.6,78,0.00,OVC,SKC,0.00,784.0,WeatherDisplay:10.37,2013-04-11 20:50:00,
2013-04-11 13:55:00,57.5,50.7,29.86,ESE,113,5.0,5.0,78,0.00,OVC,SKC,0.00,508.0,WeatherDisplay:10.37,2013-04-11 20:55:00,
2013-04-11 14:00:00,57.3,50.1,29.86,East,100,8.1,8.1,77,0.00,OVC,SKC,0.00,592.0,WeatherDisplay:10.37,2013-04-11 21:00:00,
2013-04-11 14:05:00,56.6,49.8,29.86,ESE,107,8.1,8.1,78,0.00,OVC,SKC,0.00,649.0,WeatherDisplay:10.37,2013-04-11 21:05:00,
2013-04-11 14:10:00,56.9,51.1,29.85,East,90,6.9,6.9,81,0.00,OVC,SKC,0.00,861.0,WeatherDisplay:10.37,2013-04-11 21:10:00,
2013-04-11 14:15:00,57.1,51.3,29.85,SE,132,6.0,6.0,81,0.00,OVC,SKC,0.00,1046.0,WeatherDisplay:10.37,2013-04-11 21:15:00,
2013-04-11 14:20:00,57.5,51.4,29.85,SE,130,5.8,5.8,80,0.00,OVC,SKC,0.00,995.0,WeatherDisplay:10.37,2013-04-11 21:20:00,
2013-04-11 14:25:00,57.6,51.1,29.85,ESE,120,5.8,5.8,79,0.00,OVC,SKC,0.00,833.0,WeatherDisplay:10.37,2013-04-11 21:25:00,
2013-04-11 14:30:00,57.8,51.3,29.85,SSE,148,5.8,5.8,79,0.00,OVC,SKC,0.00,944.0,WeatherDisplay:10.37,2013-04-11 21:30:00,
2013-04-11 14:35:00,58.1,51.3,29.85,SE,146,3.5,3.5,78,0.00,OVC,SKC,0.00,946.0,WeatherDisplay:10.37,2013-04-11 21:35:00,
2013-04-11 14:40:00,58.5,51.3,29.84,SE,143,5.8,5.8,77,0.00,OVC,SKC,0.00,919.0,WeatherDisplay:10.37,2013-04-11 21:40:00,
2013-04-11 14:45:00,58.4,51.2,29.84,South,169,3.5,3.5,77,0.00,BKN,SKC,0.00,868.0,WeatherDisplay:10.37,2013-04-11 21:45:00,
2013-04-11 14:50:00,59.2,50.9,29.84,SSE,149,3.5,3.5,74,0.00,CLR,SKC,0.00,881.0,WeatherDisplay:10.37,2013-04-11 21:50:00,
2013-04-11 14:55:00,60.2,51.9,29.84,South,178,3.5,3.5,74,0.00,CLR,SKC,0.00,868.0,WeatherDisplay:10.37,2013-04-11 21:55:00,
2013-04-11 15:00:00,60.3,50.9,29.84,SSE,162,3.5,3.5,71,0.00,CLR,SKC,0.00,858.0,WeatherDisplay:10.37,2013-04-11 22:00:00,
2013-04-11 15:05:00,60.2,50.0,29.84,SSE,165,4.6,4.6,69,0.00,CLR,SKC,0.00,846.0,WeatherDisplay:10.37,2013-04-11 22:05:00,
2013-04-11 15:10:00,60.9,51.0,29.84,SSE,164,3.5,3.5,70,0.00,CLR,SKC,0.00,846.0,WeatherDisplay:10.37,2013-04-11 22:10:00,
2013-04-11 15:15:00,62.1,51.0,29.84,SE,140,6.9,6.9,67,0.00,CLR,SKC,0.00,858.0,WeatherDisplay:10.37,2013-04-11 22:15:00,
2013-04-11 15:20:00,63.0,50.6,29.84,SSE,167,4.6,4.6,64,0.00,CLR,SKC,0.00,795.0,WeatherDisplay:10.37,2013-04-11 22:20:00,
2013-04-11 15:25:00,62.8,51.3,29.83,SE,136,5.0,5.0,66,0.00,CLR,SKC,0.00,768.0,WeatherDisplay:10.37,2013-04-11 22:25:00,
2013-04-11 15:30:00,63.2,50.8,29.83,SSE,148,5.8,5.8,64,0.00,CLR,SKC,0.00,826.0,WeatherDisplay:10.37,2013-04-11 22:30:00,
2013-04-11 15:35:00,63.1,50.7,29.83,SE,130,7.0,7.0,64,0.00,CLR,SKC,0.00,619.0,WeatherDisplay:10.37,2013-04-11 22:35:00,
2013-04-11 15:40:00,62.3,50.8,29.82,ESE,105,6.9,6.9,66,0.00,CLR,SKC,0.00,592.0,WeatherDisplay:10.37,2013-04-11 22:40:00,
2013-04-11 15:45:00,62.0,51.3,29.82,SE,132,4.6,4.6,68,0.00,CLR,SKC,0.00,735.0,WeatherDisplay:10.37,2013-04-11 22:45:00,
2013-04-11 15:50:00,62.1,51.8,29.82,ESE,119,6.9,6.9,69,0.00,CLR,SKC,0.00,719.0,WeatherDisplay:10.37,2013-04-11 22:50:00,
2013-04-11 15:55:00,61.7,51.4,29.81,ESE,123,8.1,8.1,69,0.00,CLR,SKC,0.00,703.0,WeatherDisplay:10.37,2013-04-11 22:55:00,
2013-04-11 16:00:00,61.1,52.0,29.81,ESE,117,4.6,4.6,72,0.00,CLR,SKC,0.00,680.0,WeatherDisplay:10.37,2013-04-11 23:00:00,
2013-04-11 16:05:00,61.4,52.3,29.81,South,170,4.6,4.6,72,0.00,CLR,SKC,0.00,663.0,WeatherDisplay:10.37,2013-04-11 23:05:00,
2013-04-11 16:10:00,60.9,51.4,29.81,ESE,121,8.1,8.1,71,0.00,CLR,SKC,0.00,649.0,WeatherDisplay:10.37,2013-04-11 23:10:00,
2013-04-11 16:16:00,61.3,51.4,29.81,SSW,193,8.1,8.1,70,0.00,CLR,SKC,0.00,635.0,WeatherDisplay:10.37,2013-04-11 23:16:00,
2013-04-11 16:21:00,62.3,51.6,29.81,South,180,9.2,9.2,68,0.00,CLR,SKC,0.00,619.0,WeatherDisplay:10.37,2013-04-11 23:21:00,
2013-04-11 16:26:00,62.2,51.1,29.81,SSW,195,4.6,4.7,67,0.00,CLR,SKC,0.00,605.0,WeatherDisplay:10.37,2013-04-11 23:26:00,
2013-04-11 16:31:00,62.7,51.2,29.81,SSW,207,5.8,5.8,66,0.00,CLR,SKC,0.00,594.0,WeatherDisplay:10.37,2013-04-11 23:31:00,
2013-04-11 16:36:00,62.9,51.4,29.81,SW,223,6.9,6.9,66,0.00,CLR,SKC,0.00,578.0,WeatherDisplay:10.37,2013-04-11 23:36:00,
2013-04-11 16:41:00,63.2,50.8,29.79,SSW,208,5.8,5.8,64,0.00,CLR,SKC,0.00,566.0,WeatherDisplay:10.37,2013-04-11 23:41:00,
2013-04-11 16:46:00,63.2,50.4,29.79,SSW,196,6.9,6.9,63,0.00,CLR,SKC,0.00,548.0,WeatherDisplay:10.37,2013-04-11 23:46:00,
2013-04-11 16:51:00,62.4,50.5,29.79,WSW,252,8.1,8.1,65,0.00,CLR,SKC,0.00,520.0,WeatherDisplay:10.37,2013-04-11 23:51:00,
2013-04-11 16:56:00,62.7,51.2,29.79,SSW,194,6.9,6.9,66,0.00,CLR,SKC,0.00,480.0,WeatherDisplay:10.37,2013-04-11 23:56:00,
2013-04-11 17:01:00,63.0,51.0,29.79,SSW,194,3.5,3.5,65,0.00,CLR,SKC,0.00,513.0,WeatherDisplay:10.37,2013-04-12 00:01:00,
2013-04-11 17:06:00,63.5,50.7,29.79,SSW,205,5.8,5.8,63,0.00,CLR,SKC,0.00,508.0,WeatherDisplay:10.37,2013-04-12 00:06:00,
2013-04-11 17:11:00,63.1,50.7,29.78,SSW,205,8.1,8.1,64,0.00,CLR,SKC,0.00,510.0,WeatherDisplay:10.37,2013-04-12 00:11:00,
2013-04-11 17:16:00,63.3,50.5,29.78,SW,230,4.6,4.6,63,0.00,CLR,SKC,0.00,364.0,WeatherDisplay:10.37,2013-04-12 00:16:00,
2013-04-11 17:21:00,63.4,50.1,29.78,South,183,3.5,3.5,62,0.00,CLR,SKC,0.00,452.0,WeatherDisplay:10.37,2013-04-12 00:21:00,
2013-04-11 17:26:00,64.0,50.7,29.78,South,175,3.5,3.5,62,0.00,CLR,SKC,0.00,450.0,WeatherDisplay:10.37,2013-04-12 00:26:00,
2013-04-11 17:32:00,64.2,50.5,29.78,South,170,2.3,2.3,61,0.00,CLR,SKC,0.00,413.0,WeatherDisplay:10.37,2013-04-12 00:32:00,
2013-04-11 17:37:00,64.4,50.7,29.78,East,97,5.0,5.0,61,0.00,FEW,SKC,0.00,381.0,WeatherDisplay:10.37,2013-04-12 00:37:00,
2013-04-11 17:42:00,63.7,50.4,29.78,ESE,119,7.0,7.0,62,0.00,SCT,SKC,0.00,357.0,WeatherDisplay:10.37,2013-04-12 00:42:00,
2013-04-11 17:47:00,63.1,51.6,29.78,East,96,4.0,4.0,66,0.00,SCT,SKC,0.00,339.0,WeatherDisplay:10.37,2013-04-12 00:47:00,
2013-04-11 17:52:00,62.5,51.0,29.78,East,83,6.0,6.0,66,0.00,SCT,SKC,0.00,322.0,WeatherDisplay:10.37,2013-04-12 00:52:00,
2013-04-11 17:57:00,61.9,50.8,29.79,East,95,6.9,6.9,67,0.00,SCT,SKC,0.00,299.0,WeatherDisplay:10.37,2013-04-12 00:57:00,
2013-04-11 18:02:00,61.3,50.6,29.79,ESE,111,7.0,7.0,68,0.00,BKN,SKC,0.00,281.0,WeatherDisplay:10.37,2013-04-12 01:02:00,
2013-04-11 18:07:00,61.2,50.9,29.79,ESE,109,2.0,2.0,69,0.00,BKN,SKC,0.00,262.0,WeatherDisplay:10.37,2013-04-12 01:07:00,
2013-04-11 18:12:00,61.0,50.4,29.79,ESE,120,4.0,4.0,68,0.00,BKN,SKC,0.00,246.0,WeatherDisplay:10.37,2013-04-12 01:12:00,
2013-04-11 18:17:00,60.7,50.5,29.79,ESE,119,4.6,4.6,69,0.00,BKN,SKC,0.00,229.0,WeatherDisplay:10.37,2013-04-12 01:17:00,
2013-04-11 18:22:00,60.5,51.0,29.79,SE,126,4.6,4.6,71,0.00,BKN,SKC,0.00,213.0,WeatherDisplay:10.37,2013-04-12 01:22:00,
2013-04-11 18:27:00,60.3,51.6,29.79,SE,144,4.6,4.6,73,0.00,BKN,SKC,0.00,192.0,WeatherDisplay:10.37,2013-04-12 01:27:00,
2013-04-11 18:32:00,60.1,51.8,29.79,SE,138,4.6,4.6,74,0.00,BKN,SKC,0.00,174.0,WeatherDisplay:10.37,2013-04-12 01:32:00,
2013-04-11 18:37:00,59.7,51.4,29.79,SE,132,3.5,3.5,74,0.00,BKN,SKC,0.00,155.0,WeatherDisplay:10.37,2013-04-12 01:37:00,
2013-04-11 18:42:00,59.4,51.1,29.79,SE,130,2.3,2.3,74,0.00,BKN,SKC,0.00,141.0,WeatherDisplay:10.37,2013-04-12 01:42:00,
2013-04-11 18:47:00,59.3,51.4,29.79,ESE,115,4.6,4.6,75,0.00,BKN,SKC,0.00,121.0,WeatherDisplay:10.37,2013-04-12 01:47:00,
2013-04-11 18:52:00,59.0,51.1,29.79,East,94,5.8,5.8,75,0.00,BKN,SKC,0.00,104.0,WeatherDisplay:10.37,2013-04-12 01:52:00,
2013-04-11 18:58:00,58.7,51.2,29.78,SE,134,6.9,6.9,76,0.00,BKN,SKC,0.00,88.0,WeatherDisplay:10.37,2013-04-12 01:58:00,
2013-04-11 19:03:00,58.6,51.1,29.78,SE,137,6.9,6.9,76,0.00,BKN,SKC,0.00,70.0,WeatherDisplay:10.37,2013-04-12 02:03:00,
2013-04-11 19:08:00,58.4,50.9,29.78,ESE,102,5.0,5.0,76,0.00,BKN,SKC,0.00,56.0,WeatherDisplay:10.37,2013-04-12 02:08:00,
2013-04-11 19:13:00,58.1,50.9,29.79,SE,141,7.0,7.0,77,0.00,OVC,SKC,0.00,40.0,WeatherDisplay:10.37,2013-04-12 02:13:00,
2013-04-11 19:18:00,58.0,51.2,29.79,SE,125,8.1,8.1,78,0.00,OVC,SKC,0.00,32.0,WeatherDisplay:10.37,2013-04-12 02:18:00,
2013-04-11 19:23:00,58.1,51.6,29.79,SE,126,8.1,8.1,79,0.00,OVC,SKC,0.00,19.0,WeatherDisplay:10.37,2013-04-12 02:23:00,
2013-04-11 19:28:00,57.8,51.3,29.79,SE,136,9.2,9.2,79,0.00,OVC,SKC,0.00,14.0,WeatherDisplay:10.37,2013-04-12 02:28:00,
2013-04-11 19:33:00,56.9,50.5,29.79,SE,134,13.8,13.8,79,0.00,OVC,SKC,0.00,9.0,WeatherDisplay:10.37,2013-04-12 02:33:00,
2013-04-11 19:38:00,56.1,50.0,29.79,ESE,123,11.5,11.5,80,0.00,OVC,SKC,0.00,5.0,WeatherDisplay:10.37,2013-04-12 02:38:00,
2013-04-11 19:43:00,55.5,50.1,29.79,SSE,150,13.8,13.8,82,0.00,OVC,SKC,0.00,0.0,WeatherDisplay:10.37,2013-04-12 02:43:00,
2013-04-11 19:48:00,55.1,49.7,29.79,ESE,107,13.8,13.8,82,0.00,OVC,SKC,0.00,0.0,WeatherDisplay:10.37,2013-04-12 02:48:00,
2013-04-11 19:53:00,54.8,49.7,29.79,SSE,165,13.8,13.8,83,0.00,OVC,SKC,0.00,0.0,WeatherDisplay:10.37,2013-04-12 02:53:00,
2013-04-11 19:58:00,54.4,49.3,29.79,SSE,148,11.5,11.5,83,0.00,OVC,SKC,0.00,0.0,WeatherDisplay:10.37,2013-04-12 02:58:00,
2013-04-11 20:03:00,54.2,49.1,29.79,SSE,148,11.5,11.5,83,0.00,,SKC,0.00,0.0,WeatherDisplay:10.37,2013-04-12 03:03:00,
2013-04-11 20:08:00,54.2,49.1,29.79,SE,142,9.2,9.2,83,0.00,,SKC,0.00,0.0,WeatherDisplay:10.37,2013-04-12 03:08:00,
2013-04-11 20:13:00,54.0,49.0,29.81,SE,144,8.1,8.1,83,0.00,,SKC,0.00,0.0,WeatherDisplay:10.37,2013-04-12 03:13:00,
2013-04-11 20:18:00,53.8,49.1,29.81,SSE,158,11.5,11.5,84,0.00,,SKC,0.00,0.0,WeatherDisplay:10.37,2013-04-12 03:18:00,
2013-04-11 20:23:00,53.7,49.0,29.81,SE,140,9.2,9.2,84,0.00,,SKC,0.00,0.0,WeatherDisplay:10.37,2013-04-12 03:23:00,
2013-04-11 20:28:00,53.5,48.8,29.81,SE,124,8.1,8.1,84,0.00,,SKC,0.00,0.0,WeatherDisplay:10.37,2013-04-12 03:28:00,
2013-04-11 20:33:00,53.2,48.5,29.81,East,98,9.2,9.2,84,0.00,,SKC,0.00,0.0,WeatherDisplay:10.37,2013-04-12 03:33:00,
2013-04-11 20:38:00,53.1,48.4,29.81,ENE,78,9.2,9.2,84,0.00,,SKC,0.00,0.0,WeatherDisplay:10.37,2013-04-12 03:38:00,
2013-04-11 20:43:00,53.0,48.3,29.81,ESE,111,11.5,11.5,84,0.00,,SKC,0.00,0.0,WeatherDisplay:10.37,2013-04-12 03:43:00,
2013-04-11 20:48:00,53.0,48.3,29.81,ESE,105,9.2,9.2,84,0.00,,SKC,0.00,0.0,WeatherDisplay:10.37,2013-04-12 03:48:00,
2013-04-11 20:53:00,53.0,48.3,29.81,ENE,63,8.1,8.1,84,0.00,,SKC,0.00,0.0,WeatherDisplay:10.37,2013-04-12 03:53:00,
2013-04-11 20:58:00,52.9,48.2,29.81,ENE,78,9.2,9.2,84,0.00,,SKC,0.00,0.0,WeatherDisplay:10.37,2013-04-12 03:58:00,
2013-04-11 21:00:00,53.0,48.3,29.81,East,90,5.0,12.0,84,0.00,,SKC,0.00,0.0,WeatherDisplay:10.37,2013-04-12 04:00:00,
2013-04-11 21:05:00,52.8,47.8,29.81,ENE,66,4.6,4.6,83,0.00,,SKC,0.00,0.0,WeatherDisplay:10.37,2013-04-12 04:05:00,
2013-04-11 21:10:00,52.8,47.8,29.81,ESE,112,6.9,6.9,83,0.00,,SKC,0.00,0.0,WeatherDisplay:10.37,2013-04-12 04:10:00,
2013-04-11 21:15:00,52.8,47.8,29.81,ESE,111,6.9,6.9,83,0.00,,SKC,0.00,0.0,WeatherDisplay:10.37,2013-04-12 04:15:00,
2013-04-11 21:20:00,52.7,47.7,29.81,East,86,4.6,4.6,83,0.00,,SKC,0.00,0.0,WeatherDisplay:10.37,2013-04-12 04:20:00,
2013-04-11 21:25:00,52.6,47.9,29.81,East,98,5.8,5.8,84,0.00,,SKC,0.00,0.0,WeatherDisplay:10.37,2013-04-12 04:25:00,
2013-04-11 21:30:00,52.4,47.7,29.81,ENE,69,4.6,4.6,84,0.00,,SKC,0.00,0.0,WeatherDisplay:10.37,2013-04-12 04:30:00,
2013-04-11 21:35:00,52.3,47.6,29.81,ENE,65,2.3,2.3,84,0.00,,SKC,0.00,0.0,WeatherDisplay:10.37,2013-04-12 04:35:00,
2013-04-11 21:40:00,52.2,47.5,29.81,ENE,65,0.0,0.0,84,0.00,,SKC,0.00,0.0,WeatherDisplay:10.37,2013-04-12 04:40:00,
2013-04-11 21:45:00,52.1,47.4,29.81,ENE,65,2.3,2.3,84,0.00,,SKC,0.00,0.0,WeatherDisplay:10.37,2013-04-12 04:45:00,
2013-04-11 21:50:00,52.1,47.4,29.81,ENE,65,0.0,0.0,84,0.00,,SKC,0.00,0.0,WeatherDisplay:10.37,2013-04-12 04:50:00,
2013-04-11 21:55:00,52.0,47.3,29.83,NNE,25,3.5,3.5,84,0.00,,SKC,0.00,0.0,WeatherDisplay:10.37,2013-04-12 04:55:00,
2013-04-11 22:00:00,51.8,47.4,29.83,NNE,25,0.0,0.0,85,0.00,,SKC,0.00,0.0,WeatherDisplay:10.37,2013-04-12 05:00:00,
2013-04-11 22:05:00,51.7,47.3,29.83,NNE,25,0.0,0.0,85,0.00,,SKC,0.00,0.0,WeatherDisplay:10.37,2013-04-12 05:05:00,
2013-04-11 22:10:00,51.6,47.2,29.82,NNE,25,0.0,0.0,85,0.00,,SKC,0.00,0.0,WeatherDisplay:10.37,2013-04-12 05:10:00,
2013-04-11 22:15:00,51.7,47.3,29.82,NNE,25,0.0,0.0,85,0.00,,SKC,0.00,0.0,WeatherDisplay:10.37,2013-04-12 05:15:00,
2013-04-11 22:20:00,51.7,47.3,29.82,NNE,25,0.0,0.0,85,0.00,,SKC,0.00,0.0,WeatherDisplay:10.37,2013-04-12 05:20:00,
2013-04-11 22:25:00,51.7,47.3,29.82,NNE,25,0.0,0.0,85,0.00,,SKC,0.00,0.0,WeatherDisplay:10.37,2013-04-12 05:25:00,
2013-04-11 22:30:00,51.7,47.3,29.82,NNE,25,0.0,0.0,85,0.00,,SKC,0.00,0.0,WeatherDisplay:10.37,2013-04-12 05:30:00,
2013-04-11 22:35:00,51.7,47.3,29.82,NNE,25,0.0,0.0,85,0.00,,SKC,0.00,0.0,WeatherDisplay:10.37,2013-04-12 05:35:00,
2013-04-11 22:40:00,51.6,47.2,29.82,NNE,25,0.0,0.0,85,0.00,,SKC,0.00,0.0,WeatherDisplay:10.37,2013-04-12 05:40:00,
2013-04-11 22:45:00,51.5,47.1,29.82,NNE,25,0.0,0.0,85,0.00,,SKC,0.00,0.0,WeatherDisplay:10.37,2013-04-12 05:45:00,
2013-04-11 22:50:00,51.3,46.9,29.82,NNE,25,2.3,2.3,85,0.00,,SKC,0.00,0.0,WeatherDisplay:10.37,2013-04-12 05:50:00,
2013-04-11 22:55:00,51.1,46.7,29.82,NNE,25,3.5,3.5,85,0.00,,SKC,0.00,0.0,WeatherDisplay:10.37,2013-04-12 05:55:00,
2013-04-11 23:00:00,50.8,46.8,29.82,NNE,25,0.0,0.0,86,0.00,,SKC,0.00,0.0,WeatherDisplay:10.37,2013-04-12 06:00:00,
2013-04-11 23:05:00,50.8,46.8,29.82,NNE,25,0.0,0.0,86,0.00,,SKC,0.00,0.0,WeatherDisplay:10.37,2013-04-12 06:05:00,
2013-04-11 23:10:00,50.8,46.8,29.82,NNE,25,0.0,0.0,86,0.00,,SKC,0.00,0.0,WeatherDisplay:10.37,2013-04-12 06:10:00,
2013-04-11 23:15:00,50.8,47.1,29.82,North,9,3.5,3.5,87,0.00,,SKC,0.00,0.0,WeatherDisplay:10.37,2013-04-12 06:15:00,
2013-04-11 23:20:00,50.8,47.1,29.82,North,5,1.2,1.2,87,0.00,,SKC,0.00,0.0,WeatherDisplay:10.37,2013-04-12 06:20:00,
2013-04-11 23:25:00,50.7,47.0,29.82,North,5,3.5,3.5,87,0.00,,SKC,0.00,0.0,WeatherDisplay:10.37,2013-04-12 06:25:00,
2013-04-11 23:30:00,50.7,47.0,29.82,North,5,1.2,0.0,87,0.00,,SKC,0.00,0.0,WeatherDisplay:10.37,2013-04-12 06:30:00,
2013-04-11 23:35:00,50.7,47.0,29.82,North,5,2.3,2.3,87,0.00,,SKC,0.00,0.0,WeatherDisplay:10.37,2013-04-12 06:35:00,
2013-04-11 23:40:00,50.8,47.1,29.82,North,5,3.5,3.5,87,0.00,,SKC,0.00,0.0,WeatherDisplay:10.37,2013-04-12 06:40:00,
2013-04-11 23:45:00,51.0,47.6,29.82,WSW,246,3.5,3.5,88,0.00,,SKC,0.00,0.0,WeatherDisplay:10.37,2013-04-12 06:45:00,
2013-04-11 23:50:00,50.9,47.5,29.82,SW,234,3.5,3.5,88,0.00,,SKC,0.00,0.0,WeatherDisplay:10.37,2013-04-12 06:50:00,
2013-04-11 23:55:00,50.8,47.4,29.82,WSW,237,2.3,2.3,88,0.00,,SKC,0.00,0.0,WeatherDisplay:10.37,2013-04-12 06:55:00,